Hourly Data Report for September 20, 2019

All times are specified in Local Standard Time (LST). Add 1 hour to adjust for Daylight Saving Time where and when it is observed.

NAIN
NEWFOUNDLAND
Current Station Operator: ECCC - MSC

56°33'00.000" N
61°41'00.000" W
7.60 m
8502799
71665
WFP

Download Data

Hourly Data (September 2019)
Hourly Data Report for September 20, 2019
TIME Temp Definition
°C
Dew Point Temp Definition
°C
Rel Hum Definition
%
Wind Dir Definition
10's deg

Wind Spd Definition
km/h
Visibility Definition
km
Stn Press Definition
kPa
Hmdx Definition


Wind Chill Definition


Weather Definition


00:00 18.4 14.2 77 LegendMM LegendMM   99.74     LegendNANA
01:00 18.3 14.0 76 LegendMM LegendMM   99.73     LegendNANA
02:00 18.4 14.4 77 LegendMM LegendMM   99.69     LegendNANA
03:00 18.3 14.2 77 LegendMM LegendMM   99.71     LegendNANA
04:00 17.8 14.1 79 LegendMM LegendMM   99.67     LegendNANA
05:00 17.9 14.1 78 LegendMM LegendMM   99.68     LegendNANA
06:00 18.1 14.3 79 LegendMM LegendMM   99.72     LegendNANA
07:00 18.5 14.3 77 LegendMM LegendMM   99.76     LegendNANA
08:00 12.8 9.3 79 LegendMM LegendMM   99.99     LegendNANA
09:00 12.4 6.2 66 LegendMM LegendMM   100.12     LegendNANA
10:00 11.4 4.8 64 LegendMM LegendMM   100.28     LegendNANA
11:00 13.4 4.9 56 LegendMM LegendMM   100.35     LegendNANA
12:00 14.3 3.6 49 LegendMM LegendMM   100.46     LegendNANA
13:00 13.8 3.0 48 LegendMM LegendMM   100.51     LegendNANA
14:00 13.8 3.1 48 LegendMM LegendMM   100.57     LegendNANA
15:00 13.6 2.6 47 LegendMM LegendMM   100.67     LegendNANA
16:00 12.6 2.5 50 LegendMM LegendMM   100.74     LegendNANA
17:00 11.5 1.9 52 LegendMM LegendMM   100.82     LegendNANA
18:00 11.0 1.2 51 LegendMM LegendMM   100.89     LegendNANA
19:00 10.3 1.5 54 LegendMM LegendMM   100.97     LegendNANA
20:00 9.7 1.8 58 LegendMM LegendMM   100.98     LegendNANA
21:00 9.3 1.5 58 LegendMM LegendMM   100.96     LegendNANA
22:00 8.9 1.8 61 LegendMM LegendMM   101.03     LegendNANA
23:00 8.4 1.7 62 LegendMM LegendMM   101.05     LegendNANA

Notes on Data Quality.

Legend

  • E = Estimated
  • M = Missing
  • NA = Not Available
Date modified: